This is the latest recevied weather packets stored in our database for station/object KE5VT. If no packets are shown the sender has not sent any weather packets the latest 10 day(s).
| Time | Temp. | Humidity | Pressure | Rain* | Wind** | Luminosity | Snow |
|---|---|---|---|---|---|---|---|
| 1787603399 | 31.11° C | 45% | 1011.1 hPa | 0 mm | - | 110 W/m² | - |
| 1787603096 | 30.56° C | 46% | 1011 hPa | 0 mm | - | 69 W/m² | - |
| 1787602793 | 30.56° C | 44% | 1011.1 hPa | 0 mm | - | 122 W/m² | - |
| 1787602492 | 30.56° C | 45% | 1011.3 hPa | 0 mm | - | 96 W/m² | - |
| 1787602187 | 31.11° C | 45% | 1011.1 hPa | 0 mm | - | 65 W/m² | - |
| 1787601885 | 30.56° C | 44% | 1011.2 hPa | 0 mm | - | 137 W/m² | - |
| 1787601581 | 32.22° C | 42% | 1011.2 hPa | 0 mm | - | 379 W/m² | - |
| 1787601277 | 31.67° C | 44% | 1011.3 hPa | 0 mm | - | 65 W/m² | - |
| 1787600975 | 31.11° C | 43% | 1011.2 hPa | 0 mm | - | 64 W/m² | - |
| 1787600670 | 30.56° C | 42% | 1011.1 hPa | 0 mm | - | 69 W/m² | - |
| 1787600365 | 32.22° C | 43% | 1011.1 hPa | 0 mm | - | 136 W/m² | - |
| 1787600061 | 31.67° C | 44% | 1011.2 hPa | 0 mm | - | 336 W/m² | - |
| 1787599758 | 31.67° C | 45% | 1011.2 hPa | 0 mm | - | 117 W/m² | - |
| 1787599454 | 32.22° C | 45% | 1011.2 hPa | 0 mm | - | 477 W/m² | - |
| 1787599150 | 31.11° C | 47% | 1011.5 hPa | 0 mm | - | 160 W/m² | - |
| 1787598845 | 30.56° C | 44% | 1011.3 hPa | 0 mm | - | 387 W/m² | - |
| 1787598541 | 30.56° C | 43% | 1011.3 hPa | 0 mm | - | 293 W/m² | - |
| 1787598241 | 30.56° C | 44% | 1011.4 hPa | 0 mm | - | 349 W/m² | - |
| 1787597936 | 31.67° C | 43% | 1011.3 hPa | 0 mm | - | 235 W/m² | - |
| 1787597636 | 31.67° C | 43% | 1011.5 hPa | 0 mm | - | 447 W/m² | - |
| 1787597335 | 31.11° C | 42% | 1011.4 hPa | 0 mm | - | 326 W/m² | - |
| 1787597031 | 30.56° C | 47% | 1011.5 hPa | 0 mm | - | 65 W/m² | - |
| 1787596727 | 31.67° C | 43% | 1011.5 hPa | 0 mm | - | 120 W/m² | - |
| 1787596422 | 32.22° C | 43% | 1011.7 hPa | 0 mm | - | 454 W/m² | - |
| 1787596118 | 32.22° C | 44% | 1011.5 hPa | 0 mm | - | 677 W/m² | - |
* Rain latest hour (hover to see other rain measurements)
** Current wind speed in m/s (hover to see current wind gust speed)